Weather History for Fort Stockton, TX

Change the Weather History Date:

Sunday, July 28, 2013

  Actual Average Record
Temperature  
Mean Temperature 80 °F -  
Max Temperature 93 °F 93 °F 100 °F (2002)
Min Temperature 68 °F 69 °F 63 °F (2005)
Cooling Degree Days 14    
Growing Degree Days 30 (Base 50)    
Moisture  
Dew Point 60 °F    
Average Humidity 50    
Maximum Humidity 64    
Minimum Humidity 34    
Precipitation  
Precipitation 0.00 in - - ()
Sea Level Pressure  
Sea Level Pressure 29.83 in    
Wind  
Wind Speed 10 mph (South)    
Max Wind Speed 17 mph    
Max Gust Speed 24 mph    
Visibility 10 miles    
Events      
Averages and records for this station are not official NWS values.
T = Trace of Precipitation, MM = Missing Value Source: NWS Daily Summary

Daily Weather History Graph

Daily Weather History Graph

Search for Another Location

Airport:

Trip Planner

Search our weather history database for the weather conditions in past years. The results will help you decide how hot, cold, wet, or windy it might be!

Date:

Astronomy

Jul. 28, 2013 Rise Set
Actual Time 7:06 AM CDT 8:49 PM CDT
Civil Twilight 6:40 AM CDT 9:15 PM CDT
Nautical Twilight 6:08 AM CDT 9:47 PM CDT
Astronomical Twilight 5:34 AM CDT 10:20 PM CDT
Moon 12:07 AM CDT (7/28) 1:19 PM CDT (7/28)
Length of Visible Light 14h 35m
Length of Day
13h 42m
Waning Gibbous, 60% of the Moon is Illuminated
Jul 28
Waning Gibbous
Jul 29
Last Quarter
Aug 6
New
Aug 14
First Quarter
Aug 20
Full

Hourly Weather History & Observations

Time (CDT) Temp. Heat Index Dew Point Humidity Pressure Visibility Wind Dir Wind Speed Gust Speed Precip Events Conditions
12:53 AM 73.9 °F - 53.1 °F 48% 29.90 in 10.0 mi SSE 8.1 mph - N/A   Clear
1:53 AM 72.0 °F - 53.1 °F 51% 29.89 in 10.0 mi SSE 6.9 mph - N/A   Clear
2:53 AM 72.0 °F - 53.1 °F 51% 29.86 in 10.0 mi SSE 9.2 mph - N/A   Clear
3:53 AM 69.1 °F - 55.0 °F 61% 29.87 in 10.0 mi SW 9.2 mph - N/A   Clear
4:53 AM 71.1 °F - 55.9 °F 59% 29.86 in 10.0 mi South 5.8 mph - N/A   Clear
5:53 AM 68.0 °F - 55.0 °F 63% 29.85 in 10.0 mi SSE 6.9 mph - N/A   Clear
6:53 AM 68.0 °F - 55.0 °F 63% 29.85 in 10.0 mi SSE 6.9 mph - N/A   Clear
7:53 AM 71.1 °F - 55.9 °F 59% 29.86 in 10.0 mi SE 8.1 mph - N/A   Clear
8:53 AM 73.9 °F - 61.0 °F 64% 29.86 in 10.0 mi SSE 16.1 mph - N/A   Clear
9:53 AM 79.0 °F - 63.0 °F 58% 29.87 in 10.0 mi SSE 13.8 mph - N/A   Clear
10:53 AM 82.9 °F 84.4 °F 64.0 °F 53% 29.86 in 10.0 mi South 11.5 mph 17.3 mph N/A   Clear
11:53 AM 87.1 °F 87.8 °F 63.0 °F 44% 29.85 in 10.0 mi SSE 10.4 mph 16.1 mph N/A   Partly Cloudy
12:53 PM 88.0 °F 87.9 °F 61.0 °F 40% 29.84 in 10.0 mi SE 3.5 mph - N/A   Partly Cloudy
1:53 PM 90.0 °F 90.3 °F 62.1 °F 39% 29.82 in 10.0 mi SSE 11.5 mph - N/A   Mostly Cloudy
2:53 PM 91.0 °F 90.9 °F 61.0 °F 36% 29.79 in 10.0 mi SSE 11.5 mph 23.0 mph N/A   Partly Cloudy
3:53 PM 91.9 °F 91.5 °F 60.1 °F 34% 29.77 in 10.0 mi SSE 9.2 mph 20.7 mph N/A   Partly Cloudy
4:53 PM 91.0 °F 90.5 °F 60.1 °F 35% 29.75 in 10.0 mi South 12.7 mph 24.2 mph N/A   Partly Cloudy
5:53 PM 89.1 °F 89.0 °F 61.0 °F 39% 29.75 in 10.0 mi South 15.0 mph 20.7 mph N/A   Clear
6:53 PM 88.0 °F 88.4 °F 62.1 °F 42% 29.75 in 10.0 mi SW 17.3 mph 20.7 mph N/A   Clear
7:53 PM 87.1 °F 87.0 °F 61.0 °F 41% 29.76 in 10.0 mi South 15.0 mph - N/A   Clear
8:53 PM 82.0 °F 83.1 °F 63.0 °F 52% 29.80 in 10.0 mi South 13.8 mph - N/A   Clear
9:53 PM 81.0 °F 82.5 °F 64.0 °F 56% 29.82 in 10.0 mi South 12.7 mph - N/A   Mostly Cloudy
10:53 PM 78.1 °F - 63.0 °F 60% 29.84 in 10.0 mi WSW 12.7 mph 18.4 mph N/A   Mostly Cloudy
11:53 PM 77.0 °F - 63.0 °F 62% 29.83 in 10.0 mi SSW 11.5 mph - N/A   Scattered Clouds